Terug naar catalogus

SL-8 DEB

ActiefLEO
NORAD 20435·DEBRIS·🇷🇺 Russia

Gelanceerd Jan 18, 1990 vanaf Plesetsk Cosmodrome

Loading…

Volgende Passages (komende 24 uur)

TLE

VersSource: Space-Track

Epoch: Sep 14, 2026, 10:23 UTC

1 20435U 90004D   26257.43307704  .00001221  00000-0  23228-3 0  9993
2 20435  74.0229 136.2969 0011708 117.8120 298.0068 14.65217177935497

Volg SL-8 DEB in realtime met AllMySat

Download on the App Store